Artesia, NM

6:55 AM MDT on September 24, 2017 (GMT -0600)
Artesia Municipal

Weather History for KATS - May, 2013

Change the Weather History Date:

Wednesday, May 15, 2013

  Actual Average Record
Temperature  
Mean Temperature 75 °F -  
Max Temperature 93 °F 84 °F 104 °F (2000)
Min Temperature 57 °F 50 °F 38 °F (1967)
Cooling Degree Days 10    
Growing Degree Days 25 (Base 50)    
Moisture  
Dew Point 37 °F    
Average Humidity 26    
Maximum Humidity 63    
Minimum Humidity 11    
Precipitation  
Precipitation 0.00 in - - ()
Sea Level Pressure  
Sea Level Pressure 29.88 in    
Wind  
Wind Speed 13 mph (WNW)    
Max Wind Speed 36 mph    
Max Gust Speed 43 mph    
Visibility 10 miles    
Events      
Averages and records for this station are not official NWS values.
T = Trace of Precipitation, MM = Missing Value Source: NWS Daily Summary

Daily Weather History Graph

Daily Weather History Graph

Search for Another Location

Airport or City:

Trip Planner

Search our weather history database for the weather conditions in past years. The results will help you decide how hot, cold, wet, or windy it might be!

Date:

Astronomy

May. 15, 2013 Rise Set
Actual Time 5:58 AM MDT 7:50 PM MDT
Civil Twilight 5:31 AM MDT 8:17 PM MDT
Nautical Twilight 4:58 AM MDT 8:50 PM MDT
Astronomical Twilight 4:23 AM MDT 9:25 PM MDT
Moon 10:33 AM MDT (5/15) No Moon Set
Length of Visible Light 14h 46m
Length of Day
13h 51m
Waxing Crescent, 27% of the Moon is Illuminated
May 15
Waxing Crescent
May 17
First Quarter
May 24
Full
May 31
Last Quarter
Jun 8
New

Hourly Weather History & Observations

Time (MDT) Temp. Dew Point Humidity Pressure Visibility Wind Dir Wind Speed Gust Speed Precip Events Conditions
12:35 AM 66.2 °F 39.2 °F 37% 29.96 in 10.0 mi SSE 17.3 mph 21.9 mph N/A   Clear
12:55 AM 66.2 °F 41.0 °F 40% 29.97 in 10.0 mi SSE 15.0 mph - N/A   Clear
1:15 AM 66.2 °F 41.0 °F 40% 29.99 in 10.0 mi SE 12.7 mph 18.4 mph N/A   Clear
1:35 AM 66.2 °F 42.8 °F 43% 29.98 in 10.0 mi South 13.8 mph - N/A   Scattered Clouds
1:55 AM 64.4 °F 44.6 °F 49% 29.99 in 10.0 mi SSE 11.5 mph - N/A   Partly Cloudy
2:15 AM 64.4 °F 44.6 °F 49% 29.96 in 10.0 mi SSW 17.3 mph - N/A   Partly Cloudy
2:35 AM 64.4 °F 44.6 °F 49% 29.96 in 10.0 mi South 11.5 mph 18.4 mph N/A   Partly Cloudy
2:55 AM 64.4 °F 44.6 °F 49% 29.96 in 10.0 mi ESE 15.0 mph - N/A   Clear
3:15 AM 62.6 °F 44.6 °F 52% 29.95 in 10.0 mi SSE 9.2 mph - N/A   Clear
3:35 AM 68.0 °F 41.0 °F 37% 29.93 in 10.0 mi SSW 15.0 mph 21.9 mph N/A   Clear
3:55 AM 66.2 °F 44.6 °F 46% 29.92 in 10.0 mi SE 12.7 mph - N/A   Clear
4:15 AM 64.4 °F 44.6 °F 49% 29.93 in 10.0 mi NE 11.5 mph - N/A   Mostly Cloudy
4:35 AM 62.6 °F 46.4 °F 55% 29.93 in 10.0 mi ESE 9.2 mph - N/A   Mostly Cloudy
4:55 AM 60.8 °F 46.4 °F 59% 29.92 in 10.0 mi SSE 6.9 mph - N/A   Partly Cloudy
5:15 AM 59.0 °F 46.4 °F 63% 29.92 in 10.0 mi SSE 3.5 mph - N/A   Clear
5:35 AM 59.0 °F 44.6 °F 59% 29.92 in 10.0 mi SSW 6.9 mph - N/A   Clear
5:55 AM 57.2 °F 44.6 °F 63% 29.92 in 10.0 mi SW 6.9 mph - N/A   Clear
6:15 AM 57.2 °F 42.8 °F 59% 29.93 in 10.0 mi WSW 5.8 mph - N/A   Clear
6:35 AM 59.0 °F 41.0 °F 51% 29.93 in 10.0 mi SW 6.9 mph - N/A   Clear
6:55 AM 62.6 °F 41.0 °F 45% 29.93 in 10.0 mi SE 4.6 mph - N/A   Clear
7:15 AM 66.2 °F 39.2 °F 37% 29.94 in 10.0 mi Calm Calm - N/A   Clear
7:35 AM 68.0 °F 37.4 °F 33% 29.94 in 10.0 mi East 3.5 mph - N/A   Clear
7:55 AM 75.2 °F 35.6 °F 24% 29.94 in 8.0 mi WSW 17.3 mph - N/A   Clear
8:55 AM 80.6 °F 35.6 °F 20% 29.93 in 10.0 mi West 19.6 mph 26.5 mph N/A   Clear
9:15 AM 82.4 °F 35.6 °F 19% 29.93 in 10.0 mi West 19.6 mph 27.6 mph N/A   Clear
9:35 AM 84.2 °F 35.6 °F 18% 29.92 in 10.0 mi West 20.7 mph 28.8 mph N/A   Clear
9:55 AM 86.0 °F 35.6 °F 17% 29.92 in 10.0 mi WNW 17.3 mph 25.3 mph N/A   Clear
10:15 AM 86.0 °F 35.6 °F 17% 29.92 in 10.0 mi WNW 17.3 mph 23.0 mph N/A   Clear
10:35 AM 84.2 °F 35.6 °F 18% 29.92 in 10.0 mi WNW 15.0 mph 26.5 mph N/A   Clear
10:55 AM 84.2 °F 33.8 °F 16% 29.91 in 10.0 mi WNW 16.1 mph 26.5 mph N/A   Partly Cloudy
11:15 AM 86.0 °F 35.6 °F 17% 29.91 in 10.0 mi West 23.0 mph 26.5 mph N/A   Partly Cloudy
11:35 AM 86.0 °F 35.6 °F 17% 29.91 in 10.0 mi West 17.3 mph 27.6 mph N/A   Partly Cloudy
11:55 AM 87.8 °F 37.4 °F 17% 29.90 in 10.0 mi WSW 20.7 mph 28.8 mph N/A   Partly Cloudy
12:15 PM 84.2 °F 39.2 °F 20% 29.89 in 10.0 mi West 26.5 mph 33.4 mph N/A   Scattered Clouds
12:35 PM 86.0 °F 37.4 °F 18% 29.89 in 10.0 mi WNW 17.3 mph 25.3 mph N/A   Partly Cloudy
12:55 PM 87.8 °F 37.4 °F 17% 29.88 in 10.0 mi West 16.1 mph 25.3 mph N/A   Partly Cloudy
1:15 PM 86.0 °F 35.6 °F 17% 29.87 in 10.0 mi NNW 10.4 mph 23.0 mph N/A   Clear
1:35 PM 87.8 °F 35.6 °F 16% 29.86 in 10.0 mi NW 5.8 mph - N/A   Clear
1:55 PM 87.8 °F 37.4 °F 17% 29.85 in 10.0 mi NW 9.2 mph 17.3 mph N/A   Clear
2:15 PM 89.6 °F 35.6 °F 15% 29.85 in 10.0 mi North 9.2 mph 18.4 mph N/A   Clear
2:35 PM 89.6 °F 35.6 °F 15% 29.84 in 10.0 mi WNW 16.1 mph 21.9 mph N/A   Scattered Clouds
2:55 PM 89.6 °F 35.6 °F 15% 29.83 in 10.0 mi WNW 12.7 mph 19.6 mph N/A   Scattered Clouds
3:15 PM 91.4 °F 33.8 °F 13% 29.82 in 10.0 mi WNW 12.7 mph 19.6 mph N/A   Clear
3:35 PM 91.4 °F 32.0 °F 12% 29.81 in 10.0 mi NW 13.8 mph 18.4 mph N/A   Clear
3:55 PM 91.4 °F 32.0 °F 12% 29.80 in 10.0 mi West 13.8 mph 31.1 mph N/A   Partly Cloudy
4:15 PM 91.4 °F 32.0 °F 12% 29.80 in 10.0 mi NNW 11.5 mph 19.6 mph N/A   Clear
4:35 PM 91.4 °F 32.0 °F 12% 29.80 in 10.0 mi NW 9.2 mph 23.0 mph N/A   Clear
4:55 PM 91.4 °F 32.0 °F 12% 29.79 in 10.0 mi NNW 13.8 mph 20.7 mph N/A   Clear
5:15 PM 91.4 °F 33.8 °F 13% 29.79 in 10.0 mi NW 9.2 mph 26.5 mph N/A   Clear
5:35 PM 91.4 °F 33.8 °F 13% 29.78 in 10.0 mi WNW 9.2 mph - N/A   Clear
5:55 PM 91.4 °F 33.8 °F 13% 29.77 in 10.0 mi NNW 12.7 mph - N/A   Clear
6:15 PM 93.2 °F 32.0 °F 11% 29.77 in 10.0 mi NW 10.4 mph 20.7 mph N/A   Clear
6:35 PM 91.4 °F 32.0 °F 12% 29.77 in 10.0 mi NNE 24.2 mph 28.8 mph N/A   Clear
6:55 PM 87.8 °F 33.8 °F 15% 29.78 in 8.0 mi North 35.7 mph 42.6 mph N/A   Clear
7:15 PM 86.0 °F 35.6 °F 17% 29.80 in 10.0 mi NNE 9.2 mph - N/A   Clear
7:35 PM 86.0 °F 33.8 °F 15% 29.80 in 10.0 mi WNW 6.9 mph - N/A   Clear
7:55 PM 86.0 °F 33.8 °F 15% 29.80 in 10.0 mi NNW 6.9 mph - N/A   Clear
8:15 PM 84.2 °F 33.8 °F 16% 29.81 in 10.0 mi NNW 8.1 mph - N/A   Clear
8:35 PM 84.2 °F 32.0 °F 15% 29.82 in 10.0 mi North 11.5 mph 19.6 mph N/A   Clear
8:55 PM 84.2 °F 35.6 °F 18% 29.83 in 10.0 mi North 8.1 mph - N/A   Clear
9:15 PM 82.4 °F 33.8 °F 17% 29.84 in 10.0 mi WNW 6.9 mph - N/A   Clear
9:35 PM 82.4 °F 33.8 °F 17% 29.85 in 10.0 mi WNW 6.9 mph - N/A   Clear
9:55 PM 80.6 °F 32.0 °F 17% 29.86 in 10.0 mi WNW 6.9 mph - N/A   Clear
10:15 PM 78.8 °F 32.0 °F 18% 29.87 in 10.0 mi WNW 6.9 mph - N/A   Clear
10:35 PM 77.0 °F 32.0 °F 19% 29.87 in 10.0 mi WNW 5.8 mph - N/A   Clear
10:55 PM 77.0 °F 32.0 °F 19% 29.87 in 10.0 mi WNW 5.8 mph - N/A   Clear
11:15 PM 77.0 °F 32.0 °F 19% 29.86 in 10.0 mi NNW 5.8 mph - N/A   Clear
11:35 PM 77.0 °F 32.0 °F 19% 29.86 in 10.0 mi North 3.5 mph - N/A   Clear
11:55 PM 73.4 °F 32.0 °F 22% 29.86 in 10.0 mi NNE 3.5 mph - N/A   Clear